GAOFEN-13 02

Last updated on Thu Nov 21 2024 00:02:45 GMT+0000 (Coordinated Universal Time)

1 55912U 23036A 24325.50888314 -.00000220 00000+0 00000+0 0 9992 2 55912 1.6966 310.4932 0003261 356.3534 84.4874 1.00267535 6342
UTC large
Height (km)
Speed (km/s)
/
Latitude / Longitude
Inclination (degrees)
Orbital Period (minutes)
Azimuth
Elevation
Range (km)
Doppler Factor

Next 0 passes for location: London (51.5072 / 0.1276)

Sorry there are no passes over London.